Torna al catalogo

CZ-4 DEB

AttivoSSO
NORAD 23261·DEBRIS·🇨🇳 China

Lanciato Sep 3, 1990 da Taiyuan Satellite Launch Center

Loading…

Prossimi Passaggi (prossime 24 ore)

TLE

AggiornatoSource: Space-Track

Epoca: Sep 14, 2026, 00:47 UTC

1 23261U 90081CS  26257.03272896  .00005629  00000-0  85239-3 0  9993
2 23261  98.2322 288.2570 0015486  24.9984   4.5619 14.74508389855725

Traccia CZ-4 DEB in tempo reale con AllMySat

Download on the App Store